sat.trackr.live / text

‹ back to catalog

STARLINK-31384

NORAD 58983 · 2024-031U

PAYLOAD ACTIVE UNKNOWN

§ Identity

Operator
Country
US
Launch date
2024-02-15
Launch site
AFWTR
Launch vehicle
Mass (kg)
RCS (m²)

Purposes: comms

External: N2YO · Heavens-Above · Gunter

§ Orbital elements

Epoch: 2026-05-25T03:15:41.133600Z

Period
93.85 min
Inclination
53.1615°
Eccentricity
0.0001183
Mean motion
15.34392013 rev/d
Perigee alt
461.9 km
Apogee alt
463.5 km
Semi-major
6,840.9 km
B*
3.2458e-5
RAAN
301.1669°
Arg perigee
94.1370°
Mean anomaly
265.9767°
Rev number
12,822

§ Raw data

STARLINK-313841 58983U 24031U   26145.13589275  .00000720  00000+0  32458-4 0  99952 58983  53.1615 301.1669 0001183  94.1370 265.9767 15.34392013128227

JSON: /api/v1/satellites/58983 · /tle

For live sub-satellite position, see the globe view (requires WebGL).

§ Visibility from observer

Set your observer location to see the next 7 days of passes ≥ 10°. The values pass through the URL so the page stays shareable.

No JS? Fill the form by hand. The geolocation button needs JavaScript.